RH
89 89 83 90 88 87 85 88 97 98 98 98 96 98 94 95 90 88 91 92 89 89 85 94 89 86 81 78 73 73 83 81 80 88 98 92 90 89 83 82 91 100 99
86 89 92 89 83 85 87 84 78 97 98 99 95 99 96 98 90 87 87 99 96 97 99 98 96 95 89 88 87 87 88 87 90 82 100 100 100 94 95 90 93 96 97
88 90 87 88 84 84 92 92 96 98 97 98 99 92 98 98 98 99 88 88 89 95 96 97 96 89 89 97 98 93 90 90 93 94 100 100 100 100 100 99 88 89 94
82 82 84 81 80 85 90 92 89 99 96 79 98 97 92 91 98 99 88 88 86 88 90 93 92 89 88 89 88 86 80 81 87 90 99 100 100 100 100 98 99 100 100
75 75 76 76 79 82 94 97 79 74 70 57 94 94 90 77 85 98 99 89 86 85 87 88 89 90 89 91 98 98 93 95 98 95 92 96 98 97 99 98 100 100 100
75 75 77 81 81 85 92 96 92 68 62 89 78 66 65 71 80 89 99 99 97 96 90 89 89 94 92 92 92 94 94 96 92 98 100 100 99 100 99 100 100 99 98
82 70 83 87 83 84 95 95 88 70 81 65 72 62 60 57 64 72 99 98 99 98 99 99 98 97 95 79 75 79 82 90 96 98 96 91 95 99 100 97 98 97 95
88 81 91 99 97 92 98 99 97 86 75 72 62 56 63 64 69 77 99 97 97 92 92 89 79 78 70 63 61 64 66 63 63 71 83 83 85 94 86 80 81 81 77
93 91 72 72 85 92 96 98 95 94 83 86 85 83 64 67 70 82 90 89 93 82 81 70 62 63 77 83 72 65 65 67 67 66 66 65 68 78 86 88 94 89 86
85 77 55 49 61 98 98 94 96 100 91 96 94 79 66 72 70 81 87 88 85 79 70 68 64 65 81 96 95 94 88 89 74 52 45 41 48 62 77 76 66 72 79
58 53 57 61 84 96 100 98 99 100 99 100 98 83 80 80 78 80 86 88 90 85 83 74 71 73 73 76 82 86 74 59 60 59 45 45 49 50 30 37 59 59 62
59 62 66 71 81 99 100 98 99 100 100 99 94 82 85 88 85 84 85 88 88 83 79 78 76 75 76 72 71 68 57 53 48 43 42 45 48 55 42 34 32 20 64
64 68 74 80 90 98 99 100 100 100 100 100 99 97 93 92 90 96 93 92 89 87 81 76 76 59 48 27 26 39 46 46 44 43 44 46 48 43 55 57 53 59 64
72 77 82 84 91 99 95 99 100 100 100 100 99 99 100 100 96 92 92 93 88 82 81 70 49 48 46 48 53 53 52 49 47 46 46 46 46 46 48 48 47 46 82
75 75 83 91 93 93 92 93 97 98 100 99 99 100 99 98 94 93 90 84 81 75 57 56 54 53 52 52 53 54 54 53 51 50 47 44 42 45 47 49 47 46 45
87 83 86 89 89 89 91 91 93 97 97 99 100 100 99 97 95 93 88 85 83 63 57 58 56 51 48 48 48 49 52 49 52 50 47 44 43 43 47 48 47 47 46
85 82 86 87 78 73 72 72 72 88 96 97 97 97 95 93 94 93 88 76 48 31 53 57 52 52 51 49 47 45 47 52 53 50 48 46 44 45 40 44 44 46 45
86 80 72 65 63 67 70 68 65 69 69 59 77 85 90 91 85 72 50 26 39 45 44 48 48 50 51 49 49 49 49 51 51 53 52 49 47 43 42 41 41 42 42
44 41 39 38 36 36 36 35 38 45 57 56 51 42 34 41 39 30 25 39 58 50 42 40 45 50 52 51 53 55 56 55 53 54 55 51 50 49 46 43 40 39 38
40 40 40 39 38 38 38 38 41 43 43 46 49 54 48 34 40 43 34 36 52 44 40 42 43 47 50 51 53 54 62 62 59 56 50 54 52 51 48 44 43 40 44
40 41 39 38 39 39 41 42 43 40 37 36 41 41 33 37 48 48 48 47 46 45 44 44 46 46 50 51 51 50 55 58 54 55 53 53 52 50 50 48 46 43 42
42 43 41 41 45 45 43 44 46 44 42 40 38 38 37 38 26 38 36 37 38 39 42 44 48 48 46 45 46 48 54 54 53 50 47 48 50 49 50 49 47 42 41
43 42 43 46 48 49 55 52 48 46 45 43 43 41 41 40 39 36 36 36 38 41 44 46 46 49 49 45 44 44 47 52 51 50 50 50 51 51 50 49 47 44 38
44 45 51 53 52 54 52 52 53 50 49 51 51 49 50 47 45 44 43 43 45 47 47 48 49 53 54 54 50 47 48 49 49 50 50 50 50 52 53 51 48 47 41
57 60 57 57 55 54 56 58 57 54 53 53 55 56 56 57 60 57 55 57 61 59 57 55 53 56 54 54 56 55 49 48 47 47 49 49 48 41 50 52 50 49 44
64 62 54 54 52 54 54 54 54 51 51 49 46 47 44 44 44 42 43 52 61 63 68 67 72 71 73 75 60 64 60 63 59 53 49 46 44 43 44 49 50 49 46
Wind_Speed
9 7 5 4 1 3 4 9 7 10 11 12 14 15 13 10 10 7 4 4 2 2 2 2 3 4 7 9 11 12 14 13 14 13 12 15 13 10 11 8 11 10 5
10 6 6 5 2 3 3 5 6 10 10 12 13 14 16 15 12 10 8 6 5 5 5 3 2 0 4 6 9 10 8 8 8 9 7 10 11 8 6 6 6 4 7
9 7 6 5 2 3 2 4 7 8 9 12 14 14 14 12 12 12 10 9 8 7 6 3 2 1 2 5 5 6 7 7 8 8 8 7 5 3 5 2 4 6 7
10 7 5 4 3 4 2 1 4 6 7 9 12 11 10 10 13 13 12 12 11 9 8 6 6 6 6 6 5 3 0 1 1 1 3 4 4 7 2 4 4 3 4
9 8 7 6 8 7 2 3 1 3 7 9 9 7 7 9 11 11 12 12 12 12 12 11 11 10 10 9 7 7 7 7 7 6 6 6 5 2 1 3 2 1 2
7 5 5 8 10 8 5 4 1 4 6 6 7 5 8 10 9 9 10 11 10 11 11 12 13 13 11 9 7 6 5 5 3 3 5 2 2 1 1 1 1 1 2
6 7 6 9 11 8 8 7 5 2 4 3 4 4 7 8 8 9 12 10 10 11 12 11 9 12 10 10 8 7 6 5 3 1 3 3 2 3 3 3 4 2 3
8 12 11 10 7 9 9 9 9 5 2 2 1 3 5 7 8 9 11 9 8 6 7 6 7 7 7 8 9 9 9 9 10 9 7 7 6 9 9 10 10 7 8
8 13 13 19 15 9 14 12 10 7 4 3 2 2 4 5 7 9 7 3 3 2 3 4 6 6 8 6 7 6 7 9 9 9 8 8 7 6 4 6 7 5 4
13 12 8 6 5 8 12 13 8 7 6 7 7 3 1 3 6 7 5 3 8 6 2 1 3 4 5 5 5 5 5 6 8 12 13 12 8 1 5 6 6 5 5
8 5 5 3 2 7 8 10 8 7 7 9 7 5 5 4 4 7 7 5 6 6 4 2 2 1 1 2 1 1 4 10 11 9 10 11 7 11 6 3 6 5 5
3 2 3 2 1 6 8 9 10 10 9 9 8 7 5 5 5 6 8 5 9 9 7 2 1 2 1 1 1 4 8 7 6 5 1 1 0 6 9 10 8 4 3
1 2 2 3 2 4 8 8 8 11 11 9 8 6 6 5 6 6 5 7 9 10 5 2 1 2 3 5 6 6 6 5 3 1 1 2 5 7 7 9 10 10 8
1 2 3 3 4 5 3 2 5 8 10 8 8 7 6 5 4 4 4 2 3 2 1 3 5 7 10 8 6 5 3 3 3 3 1 1 3 3 2 2 4 8 7
3 4 4 5 6 5 5 4 2 1 3 4 4 4 4 3 2 2 1 2 3 5 6 7 7 7 6 5 4 3 4 3 1 0 0 1 2 3 4 3 2 1 2
8 7 7 7 9 9 8 7 5 3 2 2 2 3 2 2 3 2 2 2 4 5 3 5 4 3 2 2 3 4 6 1 3 1 2 2 2 5 2 1 2 2 1
8 11 11 9 10 12 13 13 12 7 5 3 1 2 3 3 3 3 4 4 3 3 4 5 3 2 3 4 4 4 6 7 7 3 4 3 4 4 1 1 3 2 4
11 11 7 5 5 6 7 7 10 11 9 6 3 2 2 2 2 3 3 5 6 5 4 5 2 3 4 5 4 5 7 10 5 5 5 5 4 4 3 5 6 6 6
11 8 9 9 8 8 7 6 5 4 3 8 9 6 5 2 1 1 2 2 1 4 4 5 6 6 6 6 8 10 12 10 9 8 8 4 5 6 6 7 7 10 10
11 11 11 10 9 7 7 6 5 5 4 4 4 1 9 7 4 5 2 3 4 5 5 5 8 10 10 12 14 13 8 10 8 8 8 6 8 9 7 7 7 9 9
10 8 11 7 6 6 5 5 4 4 3 3 2 3 9 9 6 10 6 7 4 6 7 7 8 9 10 12 14 12 8 8 10 11 11 10 11 11 11 9 9 10 10
7 6 4 6 4 3 2 1 0 1 2 2 5 6 8 11 4 3 5 7 8 8 9 12 9 9 10 11 13 13 10 12 10 10 12 12 13 12 13 12 12 13 13
4 5 3 3 1 3 5 5 7 3 4 6 5 7 10 6 4 4 6 8 8 9 11 14 15 15 12 10 13 16 16 14 13 13 11 11 12 13 15 16 16 15 15
4 3 2 1 4 4 6 8 6 8 8 9 9 6 5 5 8 8 9 11 13 13 14 17 16 13 13 15 15 13 16 16 14 14 17 19 19 20 19 17 19 21 19
0 2 5 4 2 4 5 7 11 8 9 6 8 9 13 12 12 14 14 12 13 12 14 14 12 18 20 19 19 18 18 20 20 19 20 23 26 24 20 22 21 17 17
3 3 5 1 3 4 6 9 9 7 7 7 10 8 11 9 10 12 10 5 7 10 13 16 21 19 16 21 19 22 24 23 25 22 19 20 22 22 20 20 20 21 22
Wind_Direction
176 174 156 118 82 42 6 336 32 40 28 27 29 35 34 36 43 35 46 46 90 82 115 130 178 192 209 226 243 240 249 262 259 264 268 275 281 290 307 338 2 3 12
179 180 163 145 238 85 360 4 41 51 41 37 43 44 39 37 41 44 53 63 64 64 65 67 86 231 241 234 243 249 256 260 263 269 251 260 277 293 324 348 359 4 5
182 164 161 187 314 344 46 54 67 51 49 45 51 48 47 42 46 44 51 56 56 64 69 63 49 341 272 264 285 271 264 262 259 265 248 259 272 293 316 90 36 3 16
166 166 162 212 284 328 72 25 71 77 58 49 58 47 45 50 58 48 52 54 53 55 58 58 52 36 36 51 62 78 108 349 326 234 227 217 191 136 92 4 345 353 18
172 189 206 214 259 274 183 228 66 73 64 60 64 63 41 62 61 59 49 55 60 62 59 57 57 53 51 54 63 69 74 88 104 109 118 130 138 135 353 331 303 323 12
185 202 242 236 254 249 248 270 344 48 67 66 62 59 62 63 66 73 66 56 57 49 50 51 62 61 62 70 75 87 91 89 89 123 140 162 164 205 282 311 114 53 12
208 222 247 255 260 256 244 252 292 25 96 81 113 65 73 66 62 65 74 56 57 70 74 66 69 75 61 62 67 66 78 97 101 137 105 98 85 108 72 62 88 89 61
229 230 235 228 244 267 233 230 265 291 192 154 65 61 80 80 81 83 80 78 81 72 101 109 94 96 69 67 68 75 75 73 71 78 85 94 89 103 97 80 57 63 50
239 254 257 251 245 249 244 256 261 289 229 196 149 100 99 99 105 105 110 18 4 57 105 79 102 104 87 52 41 62 74 73 72 71 71 76 82 92 82 104 22 9 348
240 263 287 292 246 202 237 260 244 274 222 218 211 231 81 133 133 136 143 70 9 26 114 143 115 121 116 109 49 33 66 62 38 53 50 49 51 71 166 160 155 87 247
266 299 317 319 206 201 213 233 225 228 192 200 227 220 205 189 177 162 161 163 133 160 264 24 141 143 161 209 234 222 81 97 79 54 39 38 20 342 6 228 214 192 108
281 317 331 331 207 189 209 223 233 198 230 226 219 243 246 214 208 198 207 206 188 229 291 319 301 314 69 48 75 115 115 95 83 86 254 98 40 353 22 49 40 37 161
279 330 31 47 65 182 193 208 214 206 223 242 234 256 261 237 235 235 239 240 243 253 284 328 17 73 65 79 98 105 93 67 51 199 48 351 340 38 26 14 11 16 32
119 58 52 55 75 90 108 172 202 216 231 240 248 249 244 232 230 247 254 248 241 264 73 83 69 58 46 53 52 352 257 187 152 111 103 351 2 2 352 185 335 346 277
113 89 78 77 79 78 83 83 115 199 227 241 235 230 217 211 247 239 233 225 162 131 113 89 72 51 36 360 344 353 6 58 5 337 205 299 310 323 307 302 224 9 340
88 90 89 87 82 77 72 72 79 86 138 157 180 193 222 249 242 230 259 213 164 153 124 80 35 15 295 316 327 318 307 285 249 290 300 269 281 265 217 306 318 319 332
119 93 83 75 66 61 55 59 49 49 64 87 142 207 229 223 211 219 199 177 164 164 127 16 278 293 279 290 292 290 291 264 266 259 264 289 249 295 113 297 282 294 289
116 107 98 101 82 64 45 35 34 44 30 31 38 55 89 130 158 186 188 158 110 63 55 16 303 282 270 278 264 286 274 297 322 255 260 261 262 258 265 271 286 259 253
104 119 121 120 117 103 93 89 79 72 46 356 23 39 19 340 276 232 211 223 121 322 260 297 284 267 294 281 277 268 257 248 247 256 260 255 284 280 290 281 276 287 298
149 134 107 96 95 93 85 78 69 71 72 6 318 257 354 359 43 39 77 326 355 309 307 304 299 291 277 267 274 284 285 291 291 300 273 247 270 286 282 290 280 281 284
126 124 126 113 101 92 82 72 72 59 57 37 222 283 327 315 285 277 288 295 302 295 299 290 283 284 305 299 296 310 289 290 298 281 281 277 273 280 274 281 282 272 272
133 129 125 117 96 100 351 260 206 342 331 352 271 279 323 341 263 284 288 280 281 289 291 296 296 294 284 294 292 290 283 291 270 274 276 275 272 275 282 283 279 275 267
142 148 144 153 81 285 317 314 319 329 332 325 302 285 307 307 327 255 264 272 278 280 278 272 283 287 295 289 288 289 283 279 276 277 288 278 277 279 278 274 274 273 269
191 170 92 155 268 284 338 3 7 329 327 309 307 309 336 296 296 296 286 281 277 278 279 276 287 287 283 282 279 276 286 283 280 270 267 268 266 266 267 275 272 269 265
176 255 261 316 17 10 328 335 339 331 344 334 305 290 323 268 289 297 297 287 283 287 294 296 294 295 292 281 283 287 263 266 273 270 269 274 281 282 263 259 262 269 268
134 142 108 70 360 42 21 3 350 353 354 336 1 332 329 332 319 314 331 326 328 316 304 309 285 272 275 284 272 273 272 272 278 285 288 286 287 289 262 262 265 264 266